Theta_e
330 330 330 330 330 325 319 314 310 310 310 311 315 320 320 315 318 327 330 330 332 333 334 334 333 332 332 333 333 333 334 334 334 333 332 331 330 328 326 323 322 322 322 322 324 325 324 323 319 314 309 305 302 301 301 301 301 301 301 301 300 300 300 300 300 299 299 299 299 299 299 299 299 299 299 299 299 299 299 299 299 300 301 304 307
332 331 331 330 331 332 330 325 318 314 314 316 321 327 328 326 327 332 332 332 333 334 335 334 333 332 332 333 333 333 333 333 333 332 332 331 330 328 326 325 324 324 324 323 322 322 320 316 310 305 302 301 301 301 301 301 301 301 300 300 300 300 300 300 300 300 299 299 299 299 299 299 299 299 299 299 299 299 299 299 299 299 299 299 300
332 332 332 331 332 333 333 332 328 325 324 325 329 331 333 333 333 333 334 333 333 334 334 333 333 332 332 332 333 333 333 333 333 333 332 331 330 328 327 326 324 324 324 323 322 319 313 307 303 301 301 301 301 301 301 300 300 300 300 300 300 300 299 299 299 299 299 299 299 299 299 299 299 299 299 299 299 299 299 299 299 299 298 299 299
332 332 332 332 332 333 333 333 333 332 331 331 333 334 334 334 334 333 334 333 333 334 333 332 333 332 332 332 332 333 332 333 333 332 331 331 329 328 327 325 323 322 322 322 319 312 305 302 301 301 301 301 300 301 300 300 300 300 300 299 299 299 299 299 299 299 299 299 299 299 299 299 299 299 299 299 299 299 299 299 299 299 299 299 299
332 332 332 332 332 333 333 333 332 333 333 333 333 334 334 334 334 334 334 333 333 333 332 331 333 333 332 332 333 333 333 333 333 332 331 331 329 328 326 324 322 321 321 320 313 304 301 301 301 301 300 301 300 300 300 299 299 299 299 299 299 299 299 299 299 299 299 299 299 298 298 299 298 299 299 299 299 299 299 299 299 298 298 298 298
333 332 332 333 333 333 333 332 332 333 333 333 333 333 334 335 335 334 334 334 333 331 329 330 332 332 332 332 332 332 333 333 332 331 331 329 328 327 325 323 321 321 320 315 305 300 300 300 300 301 300 300 300 299 299 299 299 299 299 299 298 299 298 298 298 298 298 298 298 298 298 298 298 298 298 298 298 298 299 300 299 301 302 301 300
333 332 332 333 333 333 333 332 332 332 332 333 332 333 334 334 334 334 334 334 333 331 330 331 332 332 332 332 332 332 332 332 331 330 329 328 327 325 323 322 321 320 316 307 301 300 300 300 300 300 300 300 299 299 299 298 298 298 298 298 298 298 298 298 298 298 298 298 298 298 298 298 298 298 298 298 298 299 302 302 300 304 305 304 302
333 331 332 332 332 332 333 332 332 331 331 333 333 333 333 333 333 333 333 333 332 332 332 332 332 332 332 331 331 331 330 330 329 328 327 326 325 324 322 322 320 317 309 301 300 301 300 300 300 300 300 299 299 299 298 298 298 298 298 298 298 298 297 298 298 298 298 298 298 298 298 298 298 298 298 299 299 302 304 303 302 304 304 304 303
332 331 332 332 331 332 333 333 333 332 332 333 333 333 332 330 331 332 332 331 331 331 332 332 332 332 331 330 330 330 329 328 328 327 326 324 324 323 322 322 317 309 303 300 300 301 300 300 300 299 299 299 299 299 298 298 298 297 297 297 297 297 297 297 297 297 298 298 298 298 298 298 298 298 298 298 301 305 305 304 305 305 304 304 305
331 330 332 332 331 332 332 332 332 332 332 333 333 331 330 329 330 330 331 332 332 332 332 332 332 332 331 330 329 329 328 327 327 326 324 323 323 321 322 320 311 301 300 300 300 301 300 300 300 299 299 299 299 298 298 298 298 297 297 297 297 297 297 297 297 297 297 297 297 298 297 297 298 298 298 298 301 305 305 304 305 306 305 305 306
330 330 332 332 332 331 331 331 330 331 332 332 331 330 329 329 330 331 331 333 333 332 332 332 332 332 331 330 330 329 328 327 326 324 322 322 321 321 321 315 305 300 300 300 300 300 300 300 300 299 299 299 298 298 298 297 298 298 297 297 297 297 297 297 297 297 297 298 297 298 298 297 297 297 298 297 300 304 304 303 304 306 306 305 306
329 330 332 332 332 332 332 330 329 330 330 331 331 330 330 331 332 332 332 333 333 333 332 332 331 331 331 330 330 329 328 326 323 322 321 321 321 320 315 306 301 300 300 300 300 300 299 300 299 299 299 299 298 298 298 298 298 298 297 297 297 297 297 297 297 297 299 299 298 299 298 298 298 298 299 298 299 303 304 304 305 305 305 305 306
329 330 332 333 332 332 332 331 330 330 329 330 330 331 331 331 332 332 332 332 332 332 332 332 332 331 330 330 329 327 326 323 321 320 320 320 320 316 306 300 300 300 300 300 300 299 299 299 298 299 298 298 298 298 298 298 298 298 297 297 297 297 297 297 297 297 299 300 299 300 300 300 300 300 301 300 301 304 305 305 306 306 306 306 305
328 329 332 332 332 332 332 331 331 330 330 329 330 330 330 331 331 332 331 331 331 332 331 331 331 331 330 329 327 325 324 322 320 319 319 320 318 309 301 300 300 300 300 300 299 299 299 298 298 298 298 298 298 298 298 298 298 298 297 297 297 297 297 297 297 296 299 301 301 301 302 302 302 303 302 300 303 306 305 305 306 306 306 305 306
328 329 332 332 331 331 331 331 331 331 331 329 329 330 330 331 331 332 331 330 330 331 331 331 331 331 330 329 326 324 322 320 319 319 319 320 314 303 300 300 300 300 300 299 299 298 298 298 298 298 298 298 298 298 298 298 298 297 297 297 297 297 297 297 297 296 299 301 302 302 303 303 303 304 303 300 303 306 305 305 306 305 305 305 305
328 330 333 332 331 331 331 331 330 330 331 330 330 330 331 332 332 332 332 330 329 329 329 330 331 331 330 328 326 323 321 319 319 319 320 320 310 300 300 301 301 301 299 299 299 298 298 298 298 298 297 298 298 298 298 298 298 298 298 298 298 298 297 297 297 297 299 301 302 302 302 302 303 303 301 299 304 306 306 305 303 303 305 305 303
329 331 333 332 331 332 331 330 330 330 331 331 331 332 332 333 332 332 331 329 328 326 327 328 329 330 330 329 326 324 322 320 320 319 320 319 308 300 301 302 301 302 301 301 300 299 299 298 298 298 297 298 298 298 298 298 299 298 298 298 298 298 297 298 298 297 298 299 299 300 300 300 301 300 299 301 305 306 305 304 301 302 304 303 301
330 332 332 331 331 332 331 331 330 331 331 331 332 332 332 332 331 329 329 329 328 327 327 327 328 329 329 329 327 325 323 322 322 320 320 319 310 301 303 304 303 303 304 304 301 300 299 298 298 298 298 298 298 298 299 299 300 300 299 298 298 298 298 298 298 298 297 297 297 297 298 298 298 297 298 303 305 304 302 301 301 303 302 300 300
331 333 332 332 332 333 332 332 331 331 332 331 332 331 331 329 327 326 326 327 327 327 327 327 327 328 328 329 328 328 326 324 323 322 321 319 312 304 304 305 305 304 305 305 303 301 300 299 299 299 299 300 299 299 300 300 300 300 300 299 298 298 298 298 298 297 297 297 297 297 296 296 296 296 299 303 303 301 300 300 301 302 301 299 300
332 333 332 332 332 333 332 332 332 332 331 331 330 329 329 327 325 324 324 324 325 326 326 326 326 327 327 328 327 328 328 325 324 322 321 319 313 307 306 308 308 306 306 306 304 302 301 301 301 301 301 301 300 300 300 300 300 300 300 299 298 298 298 298 297 297 297 297 296 296 296 296 296 296 299 301 301 300 300 301 301 302 301 300 300
332 332 332 332 333 333 332 332 332 331 330 329 328 327 326 325 323 322 322 323 323 324 325 325 326 327 327 327 327 327 327 326 324 322 321 320 317 313 312 311 310 308 307 306 304 302 302 301 301 302 301 301 301 300 300 300 300 301 300 299 298 298 298 298 297 297 297 296 296 296 296 296 296 296 297 298 299 301 301 301 301 301 301 301 300
332 332 333 333 333 333 332 332 331 330 330 328 327 326 325 323 322 322 322 323 323 324 324 325 326 327 326 326 327 327 326 325 324 323 322 321 320 318 314 312 311 308 307 307 304 302 302 302 302 302 301 301 300 300 300 300 301 301 300 299 298 298 298 298 297 296 296 296 296 296 296 296 296 296 296 296 297 299 300 301 301 301 301 300 299
332 333 333 333 333 333 332 332 331 330 329 328 327 326 324 323 323 322 322 322 322 323 324 325 326 325 324 323 323 324 324 324 324 323 321 320 320 318 313 312 310 307 307 307 304 302 302 303 303 302 302 301 301 300 301 301 301 301 300 299 298 298 298 297 297 296 296 296 296 296 296 296 296 295 295 295 296 297 298 299 300 300 300 299 299
333 333 333 333 333 332 331 331 330 329 328 328 326 325 324 323 323 323 322 321 321 321 322 324 325 323 322 321 318 317 318 318 319 320 318 317 317 316 312 310 309 307 308 308 306 304 304 303 303 302 302 302 301 301 301 301 301 300 299 298 297 297 297 297 296 296 296 296 296 296 296 296 296 295 295 296 296 297 297 298 299 299 299 299 299
333 333 333 333 332 332 331 330 330 328 327 327 326 324 323 324 323 323 322 320 319 318 318 319 321 322 320 317 313 310 310 311 313 314 312 312 314 314 312 310 308 307 308 309 307 305 304 303 302 302 302 302 301 301 301 301 300 299 298 297 297 297 296 296 296 295 296 295 296 296 296 296 296 295 296 296 296 297 297 298 299 299 299 299 299
332 333 333 333 332 331 331 330 330 328 327 326 325 324 323 323 323 323 321 319 318 316 315 315 315 316 315 313 309 307 306 306 307 307 307 308 310 311 310 309 308 307 309 309 307 304 303 302 302 302 302 301 300 300 299 299 298 298 297 297 297 296 296 296 295 295 295 295 295 296 296 296 296 296 296 296 297 297 298 298 299 299 299 299 299
333 333 333 333 332 331 331 330 330 329 327 325 325 324 323 323 323 322 320 318 315 313 312 311 310 310 310 309 307 305 304 304 305 305 305 304 304 305 306 307 307 307 308 308 305 302 302 302 302 302 303 302 300 298 298 298 297 297 297 296 296 296 296 295 295 295 295 295 295 295 295 295 296 296 296 296 297 298 298 298 299 299 299 298 298
334 333 333 332 332 331 330 330 330 329 327 325 325 325 324 324 322 321 318 314 311 309 308 307 307 307 307 306 305 304 303 303 303 303 302 301 300 301 302 305 306 306 307 307 304 302 303 303 303 303 303 301 299 298 298 297 297 297 296 296 296 295 295 295 295 295 295 295 295 295 295 295 295 296 296 297 297 298 298 298 298 298 298 298 298
333 333 332 332 331 330 330 330 330 329 327 325 325 325 325 323 322 319 314 310 307 305 304 304 305 305 304 303 302 302 301 301 300 300 300 299 299 299 300 303 305 305 305 306 305 303 304 304 303 302 300 299 298 297 297 297 297 296 296 295 295 295 295 295 295 295 295 295 295 295 295 295 295 296 296 297 297 298 298 298 298 298 297 297 297
333 332 332 331 330 330 331 331 330 328 327 326 325 325 324 322 319 315 310 305 303 302 301 302 303 302 301 301 300 300 300 300 299 299 299 299 299 299 299 299 302 304 305 305 305 305 304 303 301 300 298 298 298 297 297 296 296 295 295 295 295 295 295 295 295 295 295 295 295 295 295 295 295 295 296 296 297 297 297 297 297 297 297 297 297
332 332 331 331 330 331 331 331 329 328 326 326 325 324 322 320 316 311 306 303 301 301 300 301 301 300 300 300 300 300 299 299 299 299 299 299 299 299 299 298 301 304 304 304 304 304 302 300 299 298 298 297 297 297 296 296 295 295 295 295 295 295 295 295 295 295 295 295 295 295 295 295 295 295 295 296 296 296 297 297 297 297 297 297 297
332 331 331 331 331 331 330 329 328 327 326 325 325 323 320 316 312 307 303 301 300 300 300 300 300 300 300 299 299 299 299 299 299 299 299 299 299 298 298 298 299 301 301 300 301 301 299 298 297 297 297 297 297 296 296 295 295 295 295 295 295 295 295 295 295 295 295 295 295 295 295 295 295 295 295 295 296 296 297 297 297 297 297 297 297
332 332 332 331 330 330 330 328 327 326 325 325 323 320 316 312 307 303 301 300 300 300 300 300 300 300 299 299 299 299 299 299 299 298 298 298 298 298 298 298 298 298 298 298 299 298 297 297 297 297 297 297 296 296 296 295 295 296 296 296 296 296 295 295 295 295 295 295 295 295 295 295 295 295 295 295 296 296 297 297 296 296 297 297 297
333 333 332 331 330 330 329 328 326 325 324 324 321 316 312 308 304 301 300 300 300 299 299 300 299 299 299 299 299 299 299 298 298 298 298 298 298 298 298 298 298 298 298 298 298 298 297 297 297 297 297 296 296 296 296 296 296 296 296 296 296 295 295 295 295 295 295 295 295 295 295 295 295 295 295 295 296 296 296 296 296 296 297 297 297
333 333 332 331 329 330 329 327 326 324 324 323 318 312 308 305 301 300 300 299 299 299 299 299 299 299 299 299 298 298 298 298 298 298 298 298 298 298 298 298 298 298 298 298 298 297 297 297 297 297 296 296 296 296 296 296 297 297 296 296 296 295 295 295 295 295 295 295 295 294 295 295 295 295 295 295 295 295 296 296 296 297 297 297 297
334 333 331 330 329 329 328 326 325 324 324 321 314 308 304 302 300 300 299 299 299 299 299 299 299 299 299 298 298 298 298 298 298 298 298 297 297 297 297 298 298 298 298 298 298 297 297 297 296 296 296 296 296 296 297 297 297 297 296 296 296 295 295 295 295 295 295 295 295 294 294 295 294 294 294 294 295 295 296 296 297 297 297 297 297
334 333 331 330 329 328 327 325 325 324 323 319 311 305 302 300 299 299 299 299 299 299 299 299 298 298 298 298 298 298 298 298 297 298 297 297 297 297 297 298 298 298 298 297 297 297 297 296 296 296 296 296 297 297 297 297 297 296 296 296 296 296 295 295 295 295 295 295 295 295 294 295 294 294 294 294 295 295 296 297 297 297 297 297 297
334 332 331 330 329 328 326 325 324 323 321 317 309 302 301 300 299 299 299 299 299 298 299 298 298 298 298 298 298 297 297 297 297 297 297 297 297 297 297 297 297 297 297 297 297 297 297 296 296 296 296 297 297 297 297 297 297 297 297 297 296 296 295 295 295 295 295 295 295 295 295 295 294 294 294 294 295 296 296 297 297 297 296 296 296
334 332 331 330 328 327 325 325 324 322 320 315 307 301 300 299 299 299 299 298 298 298 298 298 298 298 298 297 297 297 297 297 297 297 297 297 297 297 297 297 297 297 297 297 297 297 297 296 296 296 297 297 297 297 297 297 297 298 298 298 297 296 295 295 296 295 295 296 295 295 295 295 294 294 294 294 295 296 296 296 296 296 296 296 296
333 332 331 329 327 326 324 324 324 321 318 313 306 301 300 299 299 299 298 298 298 298 298 298 297 297 297 297 297 297 297 297 297 297 297 296 297 297 297 297 297 297 297 297 297 297 296 295 296 296 297 297 297 298 298 298 298 298 298 298 297 297 296 296 296 296 296 296 295 295 295 295 295 294 294 294 295 296 296 296 296 296 296 296 296
333 332 330 328 326 325 325 324 324 321 316 310 305 301 300 300 299 298 298 298 298 298 298 298 298 298 297 297 297 297 296 296 297 297 296 296 296 296 297 297 297 297 297 297 297 297 296 296 296 297 297 297 298 298 298 298 299 299 298 298 297 297 297 296 296 296 296 296 296 295 295 295 295 294 294 294 295 295 296 296 296 296 296 296 297
331 330 329 327 326 325 325 325 324 321 315 308 303 301 300 300 299 298 299 298 299 299 298 298 298 298 297 297 297 297 297 296 296 296 296 296 296 296 296 296 296 296 297 297 297 297 296 296 296 297 297 298 298 298 298 298 299 299 298 298 298 298 298 297 297 297 297 297 296 296 296 295 295 295 295 294 295 295 296 296 296 296 296 297 297
331 330 328 327 326 325 325 325 324 323 317 309 303 301 300 299 299 299 299 299 299 299 299 299 299 298 297 297 297 297 297 296 296 296 296 296 296 296 296 296 296 296 297 297 297 296 296 296 297 297 297 298 298 298 298 299 299 298 298 298 298 298 298 298 298 298 298 298 297 297 296 296 295 295 295 295 295 295 296 296 296 296 297 297 297
331 330 328 327 326 326 325 325 325 324 319 310 304 302 300 299 299 299 299 300 299 299 300 300 299 299 298 297 297 297 297 296 296 296 296 296 296 296 296 296 296 297 297 297 297 296 296 296 297 297 298 298 298 298 298 299 299 298 298 298 298 298 298 298 298 299 298 298 298 298 297 296 296 295 295 295 295 295 296 296 295 296 297 297 297
331 330 328 327 326 326 326 325 325 324 320 313 306 302 301 300 300 300 300 300 299 300 302 301 300 300 300 298 297 297 297 296 296 296 295 296 296 296 296 296 296 297 297 297 297 296 296 296 297 297 298 298 298 298 299 299 299 298 298 299 298 298 299 298 299 299 298 299 298 298 298 297 296 296 296 295 295 295 296 296 295 296 297 297 297
331 330 329 327 327 326 326 325 325 324 321 315 308 304 302 301 301 300 300 299 299 302 303 302 301 301 300 298 297 297 296 296 296 295 295 295 296 296 296 296 296 297 297 297 297 296 296 296 297 297 298 299 298 298 299 299 299 298 298 299 298 298 298 298 299 299 298 298 298 298 298 297 297 296 296 296 296 296 296 295 295 295 296 297 297
331 331 329 328 327 327 326 325 324 324 322 317 311 306 304 303 302 301 300 299 301 303 303 302 302 301 299 298 297 297 297 296 295 295 295 295 295 296 296 296 296 297 297 297 296 296 296 296 297 298 298 299 298 298 298 299 298 298 298 299 299 299 298 298 299 299 298 298 298 298 298 298 297 297 297 297 296 296 296 296 295 295 295 296 296
332 331 330 329 328 327 326 325 324 324 322 318 312 308 306 304 303 301 300 301 303 304 303 302 302 301 299 297 297 297 297 297 296 295 295 295 295 295 295 296 296 296 297 297 296 296 296 296 297 298 298 298 298 298 298 298 298 298 298 298 299 298 298 298 298 298 298 298 298 298 298 298 298 298 298 297 297 297 296 296 296 296 295 295 296
332 331 330 329 328 327 327 326 325 324 323 319 314 310 308 306 304 302 301 302 304 303 302 301 301 300 298 298 298 298 299 299 299 297 297 296 295 295 295 296 296 296 296 297 296 296 296 297 298 298 298 298 298 298 298 298 298 298 298 299 299 298 298 298 298 298 298 298 298 298 298 298 298 298 298 298 298 297 297 297 296 296 295 295 295
333 331 330 329 328 327 327 327 325 324 323 320 316 313 310 307 305 303 303 304 304 303 302 301 300 299 298 299 300 300 301 302 302 300 299 298 296 295 295 296 296 296 296 296 296 296 296 297 298 298 298 298 297 298 298 298 298 298 298 299 298 298 298 298 298 298 298 298 298 298 298 298 299 299 299 299 298 298 297 297 297 297 296 295 295
332 331 330 329 328 328 327 326 324 323 322 320 317 314 311 308 307 306 305 305 304 303 301 300 300 299 298 299 300 300 302 304 303 302 301 299 297 295 295 295 296 296 296 296 296 296 296 297 297 297 297 297 297 297 298 298 298 298 298 299 298 298 298 298 298 298 298 298 298 298 298 298 299 299 299 299 299 299 298 298 297 297 296 295 295
Wind_Speed
9 9 8 8 8 8 8 9 10 11 12 13 13 12 12 13 13 12 12 12 11 11 10 9 10 9 8 5 4 5 4 4 4 4 4 4 5 5 6 7 7 7 7 6 7 7 9 11 13 14 14 14 13 13 12 12 13 13 14 15 15 15 15 15 15 14 14 14 15 14 14 14 13 13 12 12 11 11 10 11 11 12 13 14 16
9 8 8 8 8 8 8 9 10 11 12 12 12 11 11 12 12 12 12 12 12 11 10 9 9 9 7 5 5 6 5 5 5 5 5 5 6 6 7 8 8 8 9 8 8 8 10 12 12 12 12 12 11 11 11 12 13 14 14 14 14 14 14 14 14 13 13 13 14 14 14 14 13 13 13 13 12 12 12 12 12 12 12 13 14
9 9 9 8 8 8 8 9 10 11 12 12 11 11 11 11 12 12 13 13 12 11 10 9 9 10 7 5 6 7 6 6 5 6 6 7 7 7 9 10 10 10 10 10 10 10 10 11 11 11 11 11 11 11 12 12 12 13 13 14 14 14 14 14 14 14 13 13 14 14 14 14 14 14 14 14 13 13 13 13 13 13 13 13 14
9 10 9 9 9 9 9 10 11 11 12 12 11 11 11 11 11 12 12 13 12 10 8 8 9 10 6 5 6 7 6 6 6 8 9 8 8 9 11 12 12 11 11 11 12 11 10 10 11 11 11 10 11 11 13 13 13 13 13 13 14 13 14 13 14 14 14 14 15 15 16 16 17 17 17 17 16 16 15 14 14 14 14 14 14
9 10 10 9 9 10 10 11 11 11 12 12 12 11 10 10 10 10 11 12 11 9 7 7 9 8 6 5 7 6 6 7 8 9 9 9 9 12 13 13 13 13 13 12 11 10 10 10 10 10 10 11 11 11 12 13 13 13 13 13 13 13 13 13 14 15 15 16 16 17 17 18 19 19 20 21 21 21 19 18 17 16 15 15 14
10 10 10 9 9 10 10 10 11 11 12 12 11 11 10 10 10 9 11 12 10 9 7 7 8 7 6 5 6 6 7 8 9 9 8 9 11 14 14 14 14 14 13 12 10 9 9 10 10 10 10 10 11 11 12 12 12 12 12 12 12 13 13 14 14 15 16 16 17 17 18 19 20 20 21 21 22 23 22 21 21 19 18 17 16
11 11 10 10 10 10 10 10 10 11 11 11 11 10 9 10 10 10 11 11 10 9 8 8 7 6 5 5 5 6 7 8 9 8 9 11 12 14 14 14 14 14 12 10 9 9 9 9 10 10 9 9 10 11 11 11 10 10 11 12 12 13 13 14 14 15 16 17 17 18 19 19 20 20 21 21 22 22 21 21 21 19 19 19 19
12 11 11 11 11 10 10 10 10 11 11 11 11 10 10 11 10 11 11 12 11 10 10 9 7 6 5 5 5 6 7 8 8 9 11 12 13 14 14 14 14 12 10 9 9 9 9 9 9 8 8 8 9 10 10 9 9 10 10 11 12 13 13 14 14 15 16 17 18 18 19 20 20 21 21 22 22 20 19 20 20 18 19 19 20
12 12 12 12 11 11 11 11 11 12 12 12 11 10 11 11 11 11 11 12 12 12 12 10 8 7 6 6 6 6 7 8 10 11 12 13 13 13 14 14 12 10 8 8 9 9 8 8 7 7 8 8 8 8 9 8 8 9 10 11 12 12 13 14 14 15 16 17 18 18 19 20 20 21 21 21 21 19 20 20 19 19 19 19 19
12 12 13 12 12 13 13 12 11 12 12 12 12 11 11 11 11 11 11 11 11 12 12 10 9 8 7 6 6 7 9 10 12 13 14 13 13 13 13 12 10 8 7 7 7 7 6 6 6 7 7 7 7 7 8 8 8 9 10 11 11 12 12 13 14 15 16 17 18 18 19 20 20 21 21 21 19 18 20 20 19 20 20 20 20
13 13 13 13 13 14 14 14 13 12 12 12 12 12 12 12 11 12 12 11 10 11 11 11 10 9 8 8 9 10 11 12 13 14 14 13 13 13 12 10 8 7 6 7 7 6 5 5 6 6 6 6 6 6 7 7 8 8 9 10 11 12 12 13 14 15 16 17 18 18 19 19 20 20 21 21 18 18 21 20 19 19 19 20 20
14 14 14 14 14 15 15 15 14 13 12 12 12 12 13 13 12 12 12 12 11 12 12 12 11 10 10 10 11 12 12 13 14 13 13 12 12 12 10 7 6 6 6 7 7 7 6 7 7 7 6 5 5 5 6 6 7 7 8 10 10 11 12 13 13 14 16 17 18 19 20 20 21 21 22 21 19 18 21 20 18 19 20 20 20
15 14 14 14 15 15 16 15 14 13 12 12 12 13 14 14 13 13 13 13 14 14 14 13 13 12 12 11 12 12 12 13 13 13 11 11 10 9 6 5 5 6 6 7 7 7 7 7 8 8 6 5 4 4 4 5 5 6 9 10 11 11 12 13 13 14 15 17 18 19 21 21 22 23 23 22 20 18 19 18 18 18 19 19 20
16 14 15 15 15 16 16 15 14 13 13 13 13 14 15 15 15 14 14 14 15 16 16 16 15 14 13 12 12 12 13 13 13 12 11 10 9 6 4 3 5 6 6 6 5 6 6 6 7 7 6 4 3 3 4 4 5 7 10 11 11 12 13 13 14 14 15 17 18 19 20 21 22 22 22 22 19 19 20 18 17 17 18 19 20
16 15 16 16 16 15 15 14 14 14 14 13 14 15 16 16 16 16 15 15 15 16 18 18 17 15 13 12 12 12 12 14 14 12 11 10 9 5 2 2 4 5 4 4 5 5 5 4 4 5 4 3 3 3 4 5 8 10 11 12 12 12 13 14 15 15 15 17 18 18 19 20 20 20 22 21 17 18 20 17 16 17 17 18 18
17 16 17 17 16 15 14 14 14 14 14 14 14 16 17 17 17 18 17 16 16 18 19 19 19 17 14 12 12 12 12 13 13 12 12 10 8 6 2 0 2 3 4 4 5 5 4 2 2 2 2 2 3 4 5 7 10 12 13 13 13 13 14 15 16 16 16 17 18 18 18 19 19 20 21 20 17 17 18 18 18 18 17 18 20
18 18 18 18 17 15 14 14 14 14 14 14 15 17 17 18 19 19 19 18 17 18 19 20 21 20 17 14 12 10 10 11 11 12 12 11 9 6 4 1 1 3 4 5 5 6 5 3 1 2 2 2 3 4 6 8 11 13 14 14 13 13 14 16 17 17 17 18 19 19 19 19 20 21 22 19 16 16 19 20 20 18 17 20 23
19 18 18 17 17 16 14 14 14 14 14 15 16 18 19 19 20 20 20 19 18 19 21 21 21 22 21 20 17 14 11 9 9 10 11 12 11 8 6 4 3 3 3 5 6 6 6 5 3 2 2 3 4 5 7 9 12 14 16 16 15 14 15 16 17 18 19 20 21 21 21 22 22 23 21 18 17 19 21 21 18 17 19 22 24
19 19 18 18 17 16 15 14 14 14 14 15 17 19 19 20 20 20 19 20 20 21 22 21 22 22 22 22 22 20 16 13 10 9 9 11 11 10 8 6 5 4 3 3 5 5 5 4 3 3 4 5 5 7 8 10 12 14 16 16 16 15 15 17 18 20 21 22 23 23 24 24 25 24 21 18 20 22 22 20 18 18 21 24 25
20 20 19 18 18 17 17 16 15 14 15 16 19 20 19 19 19 19 19 19 20 21 21 21 21 21 22 22 22 21 20 18 14 11 9 9 9 11 10 8 7 5 4 3 3 4 4 3 3 3 4 5 6 7 9 10 12 15 16 16 15 16 17 18 19 21 22 23 24 25 26 26 26 25 21 20 21 21 21 19 18 19 21 24 26
21 21 20 19 19 18 18 18 16 15 15 17 18 19 18 18 18 18 18 19 20 20 20 21 20 20 20 21 21 20 20 19 16 13 12 10 9 10 12 11 9 7 6 4 3 3 2 2 2 2 4 6 8 9 11 12 14 16 16 16 16 17 18 19 21 22 23 24 25 26 27 27 27 26 24 22 20 19 19 18 17 19 21 24 26
22 22 21 21 21 20 20 19 17 16 16 17 18 18 17 17 17 17 18 18 18 19 20 20 20 20 20 20 21 21 20 19 18 17 15 15 13 11 11 12 10 7 7 6 4 3 2 1 2 5 6 8 9 11 13 14 15 17 17 17 18 19 20 21 22 23 24 25 26 27 27 28 28 27 26 25 23 21 19 18 18 20 22 25 27
23 23 23 23 23 22 20 19 18 17 17 17 17 17 17 16 16 16 17 17 17 19 20 21 21 21 20 20 20 20 20 20 19 19 18 18 16 13 11 11 10 8 9 8 6 5 4 5 6 8 8 9 10 12 13 15 16 18 18 18 19 20 21 22 23 24 26 26 26 27 28 28 28 28 27 26 25 24 21 17 18 20 23 25 27
25 25 25 25 23 22 20 19 19 18 17 17 17 17 17 17 17 17 17 17 18 18 19 20 20 20 19 18 19 19 20 20 19 18 18 17 15 12 10 11 12 11 10 10 9 7 7 8 8 9 9 10 11 13 14 16 18 18 19 20 21 21 22 23 24 26 27 27 27 27 28 28 27 27 26 26 25 24 21 18 19 22 24 25 26
27 26 26 25 23 21 20 19 18 17 16 17 18 17 17 17 17 17 18 18 18 18 17 18 18 18 17 17 17 17 17 17 16 16 15 14 14 13 12 13 13 12 11 12 13 11 10 10 9 8 9 11 13 14 16 18 19 19 20 21 22 23 23 24 25 26 27 27 27 27 27 27 26 25 25 24 24 23 20 18 21 23 24 25 26
27 26 26 25 23 21 19 18 18 17 16 17 18 18 18 17 17 18 18 19 18 17 16 16 16 16 16 16 15 14 14 14 14 14 14 14 14 14 13 14 14 13 13 14 14 13 11 10 9 9 9 11 13 15 17 18 19 21 22 23 23 23 23 24 25 26 26 27 27 27 26 25 24 24 23 23 23 22 20 20 23 24 25 26 28
26 27 27 25 23 21 20 19 17 17 16 17 18 19 18 18 18 18 19 18 18 16 16 15 15 15 15 14 13 12 13 13 14 14 14 13 13 12 13 14 14 14 15 16 15 13 12 10 9 9 11 13 14 16 17 19 21 22 23 23 23 22 22 23 24 25 25 25 25 25 24 24 23 22 22 22 21 21 20 22 23 24 25 27 29
26 27 27 26 23 21 20 19 18 17 16 17 18 18 18 18 18 18 18 18 16 15 15 15 15 14 13 12 11 11 12 12 12 12 11 11 11 11 11 13 13 14 15 16 15 13 11 9 9 11 13 14 15 16 18 20 21 21 21 21 21 21 21 21 22 23 24 24 24 24 23 22 22 21 21 21 20 20 21 22 23 24 25 27 28
26 27 27 26 24 22 21 20 18 17 17 18 18 18 17 17 18 18 17 16 15 14 14 14 14 13 11 10 10 11 11 10 10 10 9 9 9 9 10 12 13 14 15 16 16 14 12 10 11 12 12 13 15 16 18 19 19 18 18 18 19 19 19 19 20 21 22 22 22 22 21 21 21 21 21 21 21 22 22 23 24 25 26 27 28
26 27 27 26 24 23 22 20 19 18 18 19 19 18 18 17 18 17 16 15 14 14 13 13 12 10 10 10 10 10 10 9 9 8 8 8 7 7 8 9 12 13 14 15 15 14 13 12 12 11 11 12 14 16 17 17 17 16 16 16 17 18 18 18 19 20 21 21 20 20 20 20 20 21 21 22 22 23 24 24 25 26 27 28 29
26 27 26 26 24 23 22 21 19 18 18 19 19 19 18 17 17 17 15 14 13 13 12 11 10 10 10 10 10 10 9 9 9 8 8 7 6 6 6 6 9 11 12 13 14 13 12 11 10 10 11 13 14 15 15 15 15 14 14 14 16 17 18 18 18 19 19 19 19 19 20 20 21 21 22 22 23 23 24 25 26 27 28 29 30
26 26 25 24 24 23 22 20 19 19 19 19 19 18 17 17 17 16 15 14 13 12 11 11 10 10 10 11 10 10 9 9 9 8 7 6 5 5 4 4 6 9 9 10 11 11 9 8 7 9 10 12 14 14 14 14 13 13 12 14 16 17 17 16 16 17 18 19 19 19 20 20 22 22 23 23 23 24 25 26 27 28 28 30 31
26 25 25 24 24 23 20 18 18 18 19 19 19 18 17 17 16 16 15 13 13 12 11 11 11 11 11 11 10 9 9 9 9 8 7 6 5 5 5 6 6 7 8 8 8 8 5 5 6 9 10 11 13 13 12 12 12 12 13 14 15 16 16 15 16 17 18 19 19 20 21 21 22 23 24 24 24 25 26 27 28 28 29 31 33
26 25 25 24 24 22 19 18 18 19 19 19 18 17 17 17 17 16 15 13 13 12 12 12 12 12 12 11 10 9 9 9 9 8 7 5 5 5 6 7 7 7 7 7 6 5 3 4 6 9 10 10 10 10 11 12 13 14 15 15 15 16 16 16 16 17 19 19 20 21 22 23 23 24 24 24 25 26 27 27 28 29 31 33 35
26 26 25 25 24 21 19 19 19 20 19 18 17 16 17 17 16 15 14 13 12 12 12 12 12 12 12 11 10 10 10 10 9 8 7 6 6 6 7 8 7 6 5 4 3 2 2 4 6 8 9 8 8 8 9 11 13 15 16 16 16 16 17 17 17 18 20 20 21 22 22 23 24 24 24 25 26 27 28 28 29 30 32 34 36
27 26 26 25 24 22 20 20 20 20 18 17 16 17 17 16 15 15 14 13 12 12 12 12 12 12 12 11 11 11 10 10 9 8 7 7 7 8 8 7 6 5 3 2 2 3 4 5 7 7 7 6 7 8 9 11 13 14 15 17 18 18 18 18 18 19 20 21 22 22 23 25 25 25 26 27 27 28 28 29 30 32 33 35 37
27 27 26 25 24 22 21 20 19 19 17 16 17 18 17 16 15 14 14 13 13 12 12 13 12 12 12 12 12 12 11 10 9 8 8 8 9 8 7 6 5 4 2 3 4 5 5 6 6 6 4 4 6 8 11 13 14 15 16 18 20 21 21 21 19 19 20 22 23 23 24 26 26 27 27 28 28 28 29 30 31 32 34 36 39
27 28 27 25 24 22 20 19 18 16 15 16 18 19 17 16 15 15 15 14 13 13 14 14 13 13 13 13 13 12 11 10 9 8 8 10 10 9 7 6 4 3 2 3 5 6 6 6 5 5 4 4 6 8 11 14 16 18 19 21 22 22 23 24 22 21 21 22 24 25 26 27 28 28 28 28 28 29 29 30 31 32 34 36 40
28 28 27 25 23 21 19 17 15 15 15 16 19 19 18 16 16 16 16 15 14 14 15 15 14 14 14 13 13 12 10 9 9 8 10 10 10 8 7 5 4 3 3 4 5 6 6 6 5 4 4 6 8 10 12 14 16 19 22 25 26 25 25 26 25 24 23 23 25 26 27 28 28 28 28 28 28 29 31 32 33 34 35 36 39
29 27 26 24 22 21 18 16 15 15 15 17 20 20 18 17 17 16 16 15 15 15 16 16 15 15 15 14 13 11 10 10 9 9 10 10 9 8 7 5 4 3 3 4 5 6 6 5 3 3 4 6 8 10 13 15 17 20 23 25 27 27 27 27 26 26 27 27 27 27 28 29 29 29 29 28 29 30 32 33 35 36 36 37 39
29 27 25 24 22 20 17 15 15 15 15 18 20 20 18 17 17 17 16 16 16 16 16 16 16 16 15 14 13 12 11 11 10 10 11 10 9 8 7 5 4 4 4 4 5 6 6 4 2 2 4 6 9 12 14 17 20 21 22 22 24 26 27 27 26 26 28 30 29 29 29 30 31 31 31 30 30 32 33 35 37 38 38 39 40
29 27 26 25 23 20 17 16 15 15 16 18 20 19 17 17 17 17 16 16 16 16 15 15 16 16 15 14 13 13 13 11 11 11 11 10 9 8 7 6 5 4 4 5 5 5 5 4 2 2 4 7 10 13 15 17 18 20 20 22 24 26 27 29 28 27 28 31 32 31 30 31 32 33 32 31 32 34 34 36 39 40 41 41 41
29 27 27 27 24 20 18 18 16 15 16 18 20 19 18 17 17 16 16 17 16 16 15 15 16 16 15 15 14 14 13 12 12 12 11 10 10 9 8 7 5 5 4 5 6 5 5 4 2 3 5 8 10 12 13 16 18 18 19 21 24 26 28 30 30 29 29 32 34 34 32 31 33 34 33 32 33 35 35 37 41 43 42 42 42
30 29 29 28 24 20 19 19 17 15 15 17 19 19 18 18 17 16 16 16 16 16 15 15 16 16 15 15 15 14 13 13 13 12 11 11 11 10 9 7 5 5 4 5 6 6 5 3 2 3 5 8 10 11 13 16 17 17 18 20 23 25 27 28 28 28 29 31 34 35 33 32 33 34 34 34 34 35 36 37 42 44 43 43 43
32 31 30 28 24 21 20 20 18 16 15 16 19 19 18 18 17 17 16 16 16 15 14 15 16 16 14 13 14 14 14 14 14 13 12 12 11 11 9 7 6 6 5 5 6 6 5 3 1 3 5 7 9 11 12 15 16 16 18 20 22 23 25 26 27 26 27 30 34 36 34 33 34 35 36 35 35 36 36 38 43 45 44 44 44
34 33 30 28 26 23 21 19 19 18 16 16 18 18 17 17 17 17 17 17 17 16 15 14 15 15 14 13 13 14 14 14 13 13 13 12 12 11 9 8 7 6 4 5 6 6 5 3 1 2 4 7 8 9 10 12 14 15 17 19 21 22 23 24 25 25 26 29 33 35 35 34 34 36 37 36 36 37 37 38 43 45 45 47 47
35 34 30 29 28 25 22 19 19 19 17 16 17 17 17 17 17 18 18 17 16 16 15 15 16 15 14 13 13 14 14 14 13 13 13 12 12 11 9 9 8 5 4 5 6 6 5 3 1 1 4 5 7 7 8 10 11 13 15 17 20 22 23 23 23 24 25 28 32 34 34 33 34 36 38 37 36 37 38 39 43 45 46 47 49
36 36 32 31 29 26 22 21 20 20 18 17 16 16 16 16 17 19 19 17 16 16 16 16 17 16 15 14 14 14 14 13 12 12 12 12 12 11 10 10 8 5 4 5 5 5 5 4 2 1 3 4 6 6 6 7 9 11 13 15 18 21 23 24 25 26 26 28 32 34 34 33 34 35 38 38 37 37 39 40 43 46 47 46 48
39 38 34 33 31 27 24 21 20 20 19 18 17 16 15 16 18 20 19 17 16 16 17 17 18 17 15 15 15 15 14 13 11 10 10 11 11 11 11 10 8 6 5 5 5 5 5 4 3 1 2 4 5 5 3 5 8 10 12 15 18 21 24 26 28 27 27 29 32 35 34 34 34 35 37 38 37 38 40 42 42 46 48 47 48
40 39 36 34 31 29 26 22 21 21 20 18 17 17 16 18 19 19 18 17 17 17 18 18 18 17 16 15 16 15 14 12 10 9 9 10 11 12 11 10 8 7 6 5 5 5 5 5 3 1 2 3 5 3 1 3 7 9 11 15 19 21 23 26 28 28 27 28 32 35 35 34 35 36 38 39 38 38 40 42 43 45 49 48 48
39 39 37 34 31 31 29 25 22 22 21 18 17 17 18 18 19 19 18 17 17 19 20 19 19 18 17 17 17 15 13 12 11 10 8 9 11 12 11 10 8 7 7 6 6 5 5 5 5 3 2 2 3 3 1 2 5 7 10 14 17 20 22 24 26 29 29 30 32 35 36 36 36 37 38 40 41 41 41 43 43 45 48 49 49
Wind_Direction
187 188 196 199 197 197 200 204 205 207 207 206 204 205 210 212 211 213 216 222 223 223 228 227 225 226 217 200 195 199 205 214 235 257 278 307 326 344 355 357 357 357 351 336 318 307 301 304 315 323 328 335 341 347 350 350 352 355 358 0 1 1 2 3 4 5 4 1 0 0 0 0 358 356 353 350 346 340 332 323 316 310 301 294 293
191 198 204 206 206 204 206 208 207 208 208 207 209 212 216 217 219 224 226 228 227 226 229 230 226 226 218 203 205 205 207 215 235 258 280 305 324 342 350 346 339 339 340 337 330 321 317 321 328 335 340 346 348 352 354 355 356 358 360 1 1 2 2 2 3 5 7 4 1 2 1 1 2 360 358 355 352 349 342 336 330 323 315 307 303
194 204 209 210 211 213 215 215 212 211 212 213 219 223 222 224 228 229 232 230 227 229 236 239 229 226 222 213 210 206 211 221 242 268 290 307 321 335 340 338 334 331 332 334 336 336 334 335 340 346 351 353 352 353 354 358 0 360 0 1 2 3 3 4 4 3 6 7 4 3 1 0 1 360 359 359 358 356 351 345 338 333 329 322 316
200 210 213 213 214 216 220 220 216 216 218 219 223 225 222 225 227 228 232 231 230 232 239 236 224 223 223 215 209 209 221 233 253 277 297 312 319 329 332 333 334 335 336 339 344 347 346 348 351 352 354 354 354 355 356 360 2 2 3 1 3 4 4 4 4 4 3 5 6 4 1 0 358 357 356 355 355 356 354 351 345 339 336 331 325
214 220 221 219 218 219 223 221 219 219 220 220 222 223 220 223 226 228 234 237 237 234 235 230 219 224 228 214 209 216 233 247 265 283 297 308 316 324 326 328 332 336 340 344 349 354 356 356 355 354 353 351 354 358 2 5 4 4 5 4 5 4 4 4 4 5 3 3 5 3 2 360 357 355 353 351 351 350 347 346 346 342 338 335 330
226 228 229 228 226 227 228 226 222 221 219 221 225 223 220 223 226 228 233 237 240 237 237 232 222 225 226 207 211 233 249 261 275 286 296 305 313 319 320 323 329 334 339 345 353 1 2 358 354 353 351 351 357 4 8 9 6 6 6 6 6 4 5 5 5 5 2 1 2 1 360 358 355 353 350 349 348 346 344 344 345 345 342 340 337
228 232 235 234 235 233 232 231 224 220 222 224 225 223 218 220 221 220 226 232 238 240 238 234 230 225 216 208 227 251 259 266 276 285 294 302 309 312 314 320 327 334 338 346 356 2 360 354 351 350 350 355 3 8 9 7 6 8 9 7 6 6 6 5 4 3 1 359 358 358 356 354 353 350 347 346 346 346 344 343 345 346 346 343 340
228 233 237 238 240 235 232 231 224 221 226 226 223 221 217 218 215 213 222 230 236 238 233 229 227 224 222 225 239 256 266 270 276 285 293 300 305 307 312 320 328 334 339 349 356 356 353 351 350 348 351 359 4 6 5 4 8 12 11 9 8 7 6 4 3 1 360 357 355 355 353 351 349 347 346 345 345 347 344 342 345 344 342 341 340
229 235 239 241 242 236 231 228 223 222 224 223 223 223 218 217 217 215 220 229 234 234 229 224 219 224 231 233 239 255 269 276 283 290 295 299 303 307 314 322 330 338 344 352 353 347 345 348 350 349 353 359 1 360 1 4 11 16 14 12 10 8 7 4 1 359 357 355 353 352 351 349 346 346 345 344 347 348 344 345 348 345 344 344 344
232 237 240 242 240 234 231 230 228 226 224 222 223 223 219 217 218 222 221 223 232 232 227 225 224 231 235 235 249 265 273 279 286 290 293 297 300 307 314 321 330 341 350 351 345 341 341 346 352 354 356 358 356 354 1 4 8 13 14 11 9 7 6 2 359 357 355 353 351 349 349 346 344 344 343 344 349 346 342 346 348 348 348 347 347
234 239 242 242 240 234 230 233 233 232 229 226 225 222 223 222 219 224 221 216 225 230 229 228 228 234 239 245 258 268 274 280 284 286 289 293 297 304 312 318 329 341 348 345 342 341 344 351 357 1 0 356 350 351 359 2 1 5 9 10 8 5 3 359 357 355 353 352 350 347 346 345 343 342 342 344 348 344 341 346 350 349 347 346 347
234 237 241 241 241 237 233 235 236 234 232 230 229 225 227 226 220 223 226 222 220 224 231 234 233 233 238 249 257 262 269 275 280 282 283 286 292 301 309 319 337 347 349 347 345 344 348 355 1 2 1 359 353 349 353 355 353 358 8 10 6 3 358 355 354 353 353 350 348 346 343 343 342 341 342 343 347 348 343 346 351 348 344 346 346
233 237 242 242 240 237 236 238 238 236 233 232 230 228 231 232 227 226 231 233 228 226 230 234 236 235 236 245 253 259 266 272 274 273 273 278 285 294 301 323 351 1 2 356 348 349 355 359 0 358 358 6 10 359 350 345 348 358 10 8 3 360 354 351 350 349 352 349 346 345 341 341 341 341 342 343 348 349 342 344 349 347 345 346 345
233 238 243 243 239 239 240 241 241 238 236 235 234 233 236 239 240 239 240 241 238 234 231 228 231 235 239 245 248 254 261 266 266 264 264 268 273 276 283 332 4 11 13 12 6 6 3 356 354 351 350 5 22 16 356 347 354 5 10 4 358 355 349 348 347 346 350 347 345 345 341 340 339 339 338 341 348 345 341 346 346 342 344 345 342
235 238 244 245 242 242 242 241 241 240 242 243 243 241 241 244 248 249 248 243 238 235 232 231 232 232 235 239 243 247 252 256 255 255 259 260 259 254 257 346 12 16 20 32 40 37 16 348 343 345 345 3 14 8 0 1 5 5 4 358 353 351 347 345 341 341 345 345 344 342 338 337 336 335 333 337 348 341 337 340 335 337 344 341 334
236 238 243 246 244 243 242 240 239 241 244 246 246 247 247 249 252 254 254 250 243 239 236 236 238 236 231 231 238 241 245 250 249 249 254 252 249 242 224 50 28 34 44 52 55 52 41 1 335 354 359 8 6 0 360 5 7 3 356 351 348 347 343 339 335 336 341 340 339 337 334 334 332 330 328 336 346 335 325 322 321 333 339 330 328
236 238 242 244 245 243 240 239 239 240 243 245 247 250 251 253 257 259 259 256 250 246 243 242 242 240 236 235 239 242 248 253 248 247 250 246 240 232 216 199 85 74 69 64 63 59 58 67 85 63 37 7 357 354 355 359 1 358 352 344 340 339 338 336 334 334 335 333 333 333 331 330 327 325 327 336 338 321 314 315 320 329 327 324 330
236 239 241 243 243 242 238 238 241 243 245 248 249 252 255 257 259 260 260 257 251 248 248 247 244 241 239 240 244 249 257 260 251 247 248 243 236 225 212 201 155 121 89 70 73 73 72 83 90 70 23 359 350 345 347 352 353 351 349 342 333 333 336 334 331 329 329 328 329 328 325 324 323 324 329 332 322 311 311 315 322 325 321 325 331
237 240 241 241 241 240 239 238 241 245 248 252 254 257 259 260 260 259 258 256 253 251 251 249 246 244 242 242 245 249 255 260 258 255 254 249 240 229 218 206 186 165 135 91 87 88 89 89 71 35 0 349 342 339 340 342 343 343 343 338 328 325 328 326 324 324 324 324 325 324 322 323 323 325 328 324 315 313 314 316 319 320 320 325 329
237 241 241 240 239 240 243 244 245 248 253 256 258 259 260 260 260 259 259 259 258 256 253 251 249 247 246 246 248 250 253 257 260 260 259 257 243 229 225 219 207 192 176 144 113 106 102 88 50 18 347 332 326 326 329 330 333 335 335 331 321 315 316 318 319 320 319 320 321 321 322 323 324 324 323 319 316 315 315 315 316 318 320 323 326
236 239 239 239 239 243 247 251 254 257 261 260 256 254 255 256 257 256 257 259 259 257 253 253 252 251 250 251 252 253 253 255 255 254 252 253 249 238 234 229 218 202 191 175 143 132 115 92 63 330 304 305 314 318 321 325 325 326 326 322 313 308 310 313 315 316 316 317 318 319 321 323 323 321 318 316 314 311 310 310 313 316 317 319 323
236 237 236 237 240 244 249 253 257 261 264 260 254 251 252 254 254 253 254 255 256 255 254 254 253 252 253 254 255 256 256 254 253 254 252 253 253 249 243 232 218 201 193 186 164 155 152 163 232 259 279 298 311 315 316 318 317 317 317 313 307 304 307 310 312 313 313 314 316 317 320 321 321 319 317 314 310 307 305 305 310 313 313 316 321
236 237 236 237 239 245 250 255 260 264 264 258 253 252 252 252 252 252 252 253 252 252 252 252 253 254 255 257 259 261 262 261 259 259 259 259 256 251 240 223 205 196 195 187 175 178 199 224 245 260 277 296 304 306 308 309 309 310 309 306 303 303 305 308 310 311 311 313 314 316 318 319 319 318 317 314 311 307 304 303 309 311 311 315 319
235 236 237 238 241 246 252 258 264 268 265 257 251 251 252 252 253 253 253 253 252 252 251 251 252 254 257 260 263 265 265 265 263 261 261 260 256 247 232 211 197 197 198 189 186 200 225 239 252 264 278 293 298 300 302 303 304 304 303 301 301 302 305 307 310 310 311 312 314 316 318 318 319 318 316 314 312 309 305 304 308 310 311 315 318
235 237 239 241 243 248 254 260 267 269 265 256 250 249 252 253 256 258 257 254 252 251 251 251 251 253 256 260 263 265 264 264 263 260 259 256 250 243 229 213 203 200 196 190 195 207 223 237 250 261 275 289 295 298 298 298 300 299 299 301 303 305 306 308 310 310 311 313 315 317 319 320 320 318 316 314 311 308 304 302 305 308 311 315 318
239 240 242 244 247 251 256 261 267 267 262 255 251 249 250 252 256 258 258 255 251 249 248 248 251 253 256 259 262 263 261 260 259 258 258 255 251 247 233 214 202 198 194 191 197 207 214 225 241 258 274 288 294 296 296 297 299 300 302 305 307 309 308 309 310 311 314 316 318 320 322 322 319 316 314 312 310 307 302 302 306 310 315 319 320
242 244 245 247 250 254 258 262 266 266 260 256 254 251 250 252 255 258 257 253 249 247 247 248 252 255 258 261 260 257 255 255 255 254 254 250 246 245 237 220 202 191 191 194 197 204 212 223 242 263 279 288 292 295 298 301 303 306 309 310 309 309 309 311 312 315 317 319 321 323 324 322 319 316 314 312 309 306 303 305 309 314 319 321 321
242 245 246 248 251 254 258 261 265 265 260 257 256 255 254 254 255 256 253 248 245 245 247 249 253 255 257 259 255 250 249 249 248 246 243 239 233 232 235 231 216 197 190 194 198 206 217 232 252 269 280 286 292 298 301 304 308 311 312 311 310 310 312 315 316 318 320 321 323 325 324 323 321 319 317 313 310 307 306 308 312 315 317 319 320
243 245 245 247 250 253 256 259 264 264 259 258 259 260 261 256 252 250 245 242 241 242 245 248 250 253 252 248 244 242 241 239 238 236 233 231 229 227 228 230 228 217 205 199 200 211 226 241 257 269 278 284 292 299 304 308 313 314 314 313 313 314 318 319 319 320 321 323 326 326 325 324 323 323 320 317 313 312 312 312 313 315 317 319 319
244 245 245 246 248 251 253 257 262 262 259 258 260 263 261 254 246 240 234 233 236 238 241 242 241 242 239 235 234 234 234 234 235 235 235 231 229 230 229 227 225 223 223 216 206 212 229 245 259 271 281 290 296 303 310 314 316 316 317 317 318 320 322 321 320 320 322 325 328 328 327 326 326 325 323 321 319 317 316 315 315 316 319 320 319
244 244 244 244 246 249 252 257 261 261 260 259 259 261 258 248 239 231 228 228 230 232 234 234 230 228 230 231 233 233 234 236 236 235 234 231 228 227 226 225 216 211 220 224 213 210 224 240 259 275 289 298 303 311 316 317 317 320 322 322 323 324 325 323 321 321 324 328 331 331 330 329 329 327 326 325 323 321 318 317 318 319 321 321 319
242 242 242 242 244 248 252 258 260 260 260 259 259 259 251 239 231 225 225 226 226 226 227 227 225 224 227 229 231 234 237 238 237 235 233 230 226 219 204 196 196 192 196 206 207 208 219 238 264 284 296 304 311 316 319 317 320 326 328 328 330 332 331 329 327 327 331 335 337 336 334 333 331 330 329 327 325 323 321 319 321 322 322 321 319
240 240 241 240 243 248 253 258 260 259 258 258 258 254 240 228 223 221 222 223 223 223 221 222 224 225 226 228 230 234 237 239 236 233 232 228 217 206 190 178 178 178 176 185 198 206 227 261 285 297 305 313 317 319 320 321 326 334 338 337 340 345 344 340 337 337 340 342 341 340 337 335 334 333 332 330 327 325 323 323 324 324 323 322 320
239 240 240 240 243 248 254 258 259 256 255 254 252 243 230 222 220 220 220 219 220 220 219 221 225 227 226 226 229 232 234 235 233 231 228 220 207 195 187 182 182 182 181 190 202 207 235 277 295 305 314 318 319 322 329 332 335 343 347 347 352 357 355 350 346 344 346 346 345 345 341 338 338 337 335 333 331 330 329 329 328 327 326 324 323
239 240 240 240 243 249 253 256 256 254 253 252 245 233 223 219 220 221 220 218 218 220 222 224 226 228 228 226 227 230 233 231 230 229 222 209 198 189 187 188 190 193 194 203 228 252 277 296 307 315 321 325 330 339 344 342 343 348 352 357 3 5 2 358 352 348 349 348 348 348 344 341 342 342 340 339 337 336 334 333 331 329 328 327 327
239 239 239 239 241 246 249 251 253 252 252 251 240 227 220 218 220 222 221 220 219 220 223 226 228 230 229 229 228 229 231 232 232 230 221 207 192 184 188 194 196 203 216 243 291 311 318 319 321 325 332 343 349 352 350 348 348 352 358 5 8 7 5 2 354 350 350 348 350 351 347 346 347 346 345 343 341 339 337 335 334 334 334 333 333
238 238 237 237 238 241 245 248 251 252 254 250 236 225 219 218 219 221 221 221 221 220 222 224 227 229 230 231 231 231 233 235 236 231 214 200 190 188 194 198 201 217 253 294 313 323 327 327 326 332 348 5 2 355 352 352 352 354 1 7 9 8 6 3 356 353 352 350 352 355 351 348 350 350 348 347 344 341 339 338 339 339 339 339 339
236 236 235 235 237 239 242 247 251 254 255 246 232 224 221 218 217 217 217 219 220 221 222 222 223 226 229 231 232 234 236 236 234 223 204 196 195 198 200 201 210 235 274 304 320 324 323 325 328 335 355 9 9 2 1 2 1 359 360 3 7 9 7 5 1 358 357 354 355 358 353 350 352 353 352 351 348 344 343 343 344 343 341 340 340
235 234 232 233 235 237 241 247 253 257 253 239 227 222 220 218 217 216 215 216 216 219 221 221 222 225 228 230 231 232 232 230 228 217 203 200 202 203 203 207 221 250 284 306 320 319 316 322 329 338 360 9 10 8 5 7 8 6 4 3 6 7 7 8 5 1 360 358 357 358 355 351 354 356 355 354 352 349 349 350 348 346 344 341 340
234 233 231 230 232 234 239 246 251 254 248 233 224 221 219 217 217 217 216 215 215 218 220 219 221 226 227 227 227 226 223 223 223 214 204 204 207 207 208 214 227 254 283 301 314 314 315 325 335 350 15 15 11 9 7 8 10 12 10 7 6 7 7 8 6 2 359 358 358 359 357 353 355 359 359 358 357 355 355 354 352 350 348 344 341
232 232 230 228 229 232 237 243 248 249 242 231 223 221 220 217 216 216 215 214 216 219 220 221 223 226 227 225 222 219 220 221 218 209 203 205 208 208 211 219 232 255 281 299 313 317 319 329 350 14 25 18 11 10 12 13 13 12 10 8 8 10 9 7 8 5 360 358 358 360 359 356 357 1 3 1 1 0 359 357 356 354 351 348 347
229 230 227 224 225 229 234 239 245 247 240 231 225 222 221 219 218 217 215 215 218 219 221 225 229 229 225 222 220 219 219 219 213 207 206 208 207 207 211 221 235 257 279 297 314 325 324 328 357 29 25 22 17 15 15 16 15 12 11 10 11 12 10 8 8 8 3 359 358 360 1 359 358 2 4 4 4 4 2 360 359 357 354 352 352
227 230 224 221 222 224 232 238 243 247 242 232 226 221 219 219 219 218 216 217 219 218 222 230 233 232 227 222 220 220 219 217 212 210 210 209 208 208 213 222 239 259 277 298 319 332 330 329 358 29 27 24 21 18 17 15 14 14 14 14 13 12 12 9 8 7 5 1 358 358 0 0 359 1 4 6 6 6 4 1 0 359 356 354 354
228 229 223 220 219 222 232 236 240 244 241 233 227 221 218 217 217 216 217 221 220 219 227 233 233 233 231 226 222 220 218 215 213 213 212 210 212 213 216 225 241 257 275 300 322 334 333 329 351 23 27 24 20 18 17 14 13 15 18 17 15 14 13 10 8 6 3 0 358 357 359 1 359 360 4 6 7 8 5 3 3 0 357 357 356
229 230 223 218 218 223 232 237 241 243 239 231 226 221 217 216 214 213 216 219 220 227 239 238 232 233 235 231 226 220 215 214 214 213 211 212 216 218 220 229 242 255 277 306 324 332 330 316 328 14 22 23 20 18 17 14 12 14 17 16 16 15 13 10 8 5 2 1 359 357 358 2 0 359 2 5 7 9 7 5 5 3 1 1 0
229 227 221 216 217 222 229 237 243 242 238 231 224 220 216 214 212 211 211 212 220 237 245 236 233 238 238 232 228 223 218 216 215 213 212 214 218 221 222 231 244 256 279 308 322 327 322 299 286 17 22 22 17 14 15 14 13 13 14 14 14 15 13 10 8 6 4 2 0 357 357 2 2 358 360 3 6 9 9 7 7 6 3 3 2
230 226 219 215 216 220 226 235 241 241 239 232 223 219 215 212 212 211 208 212 226 239 237 231 236 240 235 229 225 220 219 219 217 215 214 215 219 221 223 232 243 256 276 301 315 317 309 283 264 16 22 16 7 6 13 15 14 13 13 12 12 12 11 8 8 9 8 5 3 359 357 2 3 359 358 1 5 8 10 9 7 7 4 3 2
229 226 220 216 215 217 223 232 236 237 237 230 222 219 215 213 213 210 209 219 232 234 228 228 234 234 229 225 218 213 216 218 217 217 217 218 220 221 223 231 239 247 263 288 304 305 293 270 256 349 9 0 352 355 10 15 13 13 12 13 12 10 9 8 7 10 10 6 4 1 358 0 3 359 357 360 4 7 10 9 7 6 5 3 1
225 223 219 215 214 216 222 231 233 233 234 229 223 218 214 214 213 210 215 227 233 229 226 228 232 231 227 219 209 209 216 217 215 217 218 221 223 221 223 230 237 244 259 278 291 292 281 257 244 307 343 344 340 341 0 8 8 10 11 11 11 9 7 6 5 7 9 8 5 2 359 360 2 1 358 358 2 6 8 8 7 6 6 5 2
225 223 219 213 213 217 222 229 231 232 233 230 224 220 217 216 214 213 222 234 232 226 225 227 229 230 226 216 209 212 219 219 215 215 216 219 223 223 224 227 236 248 259 269 277 279 266 246 236 264 326 331 327 318 333 3 1 5 9 10 9 7 5 4 3 3 6 9 6 1 359 0 2 2 359 357 360 5 6 6 6 5 5 5 3
224 224 219 213 213 219 222 225 229 232 232 229 227 225 222 219 219 219 227 236 233 227 226 226 227 230 228 220 215 215 220 223 223 223 223 223 225 226 224 224 233 248 256 263 271 273 258 239 226 216 232 300 315 304 291 348 354 0 6 7 5 3 2 3 3 1 3 7 7 1 358 360 3 4 2 359 357 360 3 6 6 5 5 6 4